Other Public Products
Issued by NWS Charleston, SC

Current Version | Previous Version | Graphics & Text | Print | Product List | Glossary On
Versions: 1 2 3 4 5 6 7 8 9 10 11 12 13 14 15 16 17 18 19 20 21 22 23 24 25 26 27 28 29 30 31 32 33 34 35 36 37 38 39 40 41 42 43 44 45 46 47 48 49 50
175 FPUS82 KCHS 210327 OPUCHS TEST...KCHS/KSAV Gateway Observations...TEST National Weather Service Charleston SC 1100 PM EDT FRI APR 20 2018 NOTE: "fair" indicates few or no clouds below 12,000 feet with no significant weather and/or obstructions to visibility. SCZ050-WAZ558-NCZ071-TXZ119-213-PAZ071-DCZ001-FLZ074-172-MI076- NYZ176-178-MAZ016-IL014-TNZ027-NJZ106-GAZ044-MD014-210400- ...Gateway Observations for Charleston International... CITY SKY/WX TMP DP RH WIND PRES REMARKS Chas Airport FAIR 51 40 65 CALM 30.33R Seattle CLOUDY 56 36 47 SW6 30.15F Charlotte FAIR 47 37 68 CALM 30.33R Dallas DFW PTCLDY 61 44 53 SE13 30.05S Dallas Love PTCLDY 63 44 50 SE15 30.07R Philladelphia FAIR 44 23 43 N15 30.39R Wash National FAIR 53 26 35 NW10 30.37R Baltimore FAIR 50 28 42 NE9 30.37R Miami FAIR 76 67 73 E12 30.12S Detroit FAIR 45 28 51 NE5 30.46S Newark FAIR 42 23 46 N16 30.37R Laguardia FAIR 43 24 47 N8 30.36R J F K FAIR 42 24 49 N17 30.37R Boston Logan FAIR 42 27 55 NW12 30.25S Ft. Lauderdale FAIR 77 69 76 E12 30.11S Chicago O`Hare MOCLDY 47 12 24 E3 30.44S Chicago Midway MOCLDY 47 14 26 E5 30.45R Houston Bush MOCLDY 61 52 72 SE10 30.10F Houston Hobby CLOUDY 63 57 81 E14 30.10S Nashville FAIR 54 31 41 NE10 30.31S Atlanta FAIR 57 36 45 SE3 30.29S $$ GAZ044-118-TXZ119-213-NCZ071-DCZ001-MDZ014-506-PAZ021-071-NJZ106- NYZ176-178-MAZ106-OHZ011-021-055-MIZ076-KYZ091-ILZ014-INZ047- MNZ060-ONZ431-210400- ...Gateway Observations for Savannah International... CITY SKY/WX TMP DP RH WIND PRES REMARKS Savannah Arpt FAIR 56 48 74 E6 30.32R Atlanta FAIR 57 36 45 SE3 30.29S Charlotte FAIR 47 37 68 CALM 30.33R Dallas DFW PTCLDY 61 44 53 SE13 30.05S Houston Bush MOCLDY 61 52 72 SE10 30.10F Wash National FAIR 53 26 35 NW10 30.37R Wash Dulles FAIR 49 26 41 NW7 30.37R Baltimore FAIR 50 28 42 NE9 30.37R Philadelphia FAIR 44 23 43 N15 30.39R Newark FAIR 42 23 46 N16 30.37R Laguardia FAIR 43 24 47 N8 30.36R J F K FAIR 42 24 49 N17 30.37R Boston FAIR 42 27 55 NW12 30.25S Pittsburg FAIR 41 21 44 N8 30.41F Akron FAIR 38 20 48 N3 30.43F Cleveland FAIR 42 21 43 CALM 30.47F Cincinnati FAIR 50 26 39 E5 30.41R Columbus FAIR 42 25 50 NE8 30.44R Detroit FAIR 45 28 51 NE5 30.46S Chicago O`Hare MOCLDY 47 12 24 E3 30.44S Minneapolis MOCLDY 46 24 42 SW3 30.44S Indianapolis FAIR 50 22 33 E6 30.41R Toronto Canada CLEAR 36 23 60 NW6 30.41 WCI 31 $$

USA.gov is the U.S. government's official web portal to all federal, state and local government web resources and services.